星链-36174(STARLINK-36174)

导读

STARLINK-36174是美国SpaceX公司“星链(Starlink)”低轨卫星星座的一员,于2025年12月17日发射入轨。星链项目旨在通过数千颗低轨卫星组网,为全球提供高速低延迟宽带互联网服务。作为后期发射的卫星,STARLINK-36174大概率采用第二代星链技术,具备更强通信能力,将助力星链实现全球覆盖,为偏远地区、特殊场景提供网络连接,同时也进一步壮大了全球规模最大的低轨卫星星座。

Basic Information
目录编号:
67166
目录名称:
STARLINK-36174
国际标识:
2025-303D
轨道中心:
EARTH
卫星名称:
星链-36174
卫星全名:
星链-36174(STARLINK-36174)
卫星状态:
在轨 (已飞行261 天)
发射日期:
2025-12-17 UTC
国别 :
美国 (US)
星等 :
--
Orbit Information
数据来源 国际轨道数据 AOE轨道数据
星历时间 2026-09-03T17:19:37+0800
1天前
查看轨道信息
2026-08-30T08:00:00+0800
5天前
查看轨道信息
半长轴 6861.122km 6861.063km
偏心率 0.0000718 0.0002675
轨道倾角 43.000° 43.004°
近地点辐角 207.815° 283.231°
升交点赤经 27.014° 51.805°
平近点角 152.266° 34.248°
近地点 482.492km 481.09km
远地点 483.478km 484.762km
周期 94.265分钟 94.264分钟
每日圈数 15.276015 15.276213
Detailed Information
固有亮度:
5
最大亮度:
2.5
卫星平台:
Starlink V1.0
覆盖范围:
全球
运营商:
太空探索技术公司
运营商所在国:
美国
制造商(研发单位):
太空探索技术公司
制造商所在国:
美国
使用方式:
暂无
Satellite Introduction
Starlink 计划是 SpaceX 推出的全球卫星互联网项目,通过发射低轨道卫星,为全球尤其是偏远地区提供高速、低延迟的互联网服务。自 2019 年起,Starlink 已部署数千颗卫星,旨在缩小全球数字鸿沟,推动互联网普及。该项目还为军事、航空等行业提供通信支持,带来广泛经济效益。
2D Orbit Map
3D Orbit Map
Orbit Altitude Analysis Chart
Orbit Inclination Analysis Chart
Orbit Comprehensive Analysis Chart
View Comprehensive Chart
Conjunction Data List
Event ID Objects TCA Miss Dist (km) Collision Risk Probability Collision Risk Index (CRI) Action
CDM_260905-092405-652006-716621
2026-09-05T
09:24:17+0000
0.433 km
远距离
1.961152E-4 高风险 0.81
CDM_260906-001805-652006-716621
2026-09-06T
00:18:45+0000
1.237 km
极远距离
8.321699E-6 低风险 0.53
CDM_260906-081706-124106-716621
OBJECT D (61241)
2026-09-06T
08:17:33+0000
1.701 km
极远距离
4.010064E-6 低风险 0.47
CDM_260904-104005-870106-716621
2026-09-04T
10:40:33+0000
1.670 km
极远距离
3.400477E-6 低风险 0.46
CDM_260906-015205-652006-716621
2026-09-06T
01:52:54+0000
2.009 km
极远距离
1.90445E-6 低风险 0.41
CDM_260905-105805-652006-716621
2026-09-05T
10:58:27+0000
2.049 km
极远距离
1.814909E-6 低风险 0.4
CDM_260905-075005-652006-716621
2026-09-05T
07:50:08+0000
2.110 km
极远距离
1.694627E-6 低风险 0.4
CDM_260904-155106-394506-716621
2026-09-04T
15:51:03+0000
2.813 km
极远距离
1.325864E-6 低风险 0.37